Weather History for Austin, MN

Change the Weather History Date:

Thursday, January 9, 2014

  Actual Average Record
Temperature  
Mean Temperature 2 °F -  
Max Temperature 15 °F 22 °F 48 °F (2002)
Min Temperature -11 °F 9 °F -18 °F (1999)
Degree Days  
Heating Degree Days 63    
Moisture  
Dew Point 0 °F    
Average Humidity 82    
Maximum Humidity 100    
Minimum Humidity 67    
Precipitation  
Precipitation 0.00 in - - ()
Sea Level Pressure  
Sea Level Pressure 30.18 in    
Wind  
Wind Speed 6 mph (SSE)    
Max Wind Speed 16 mph    
Max Gust Speed 22 mph    
Visibility 8 miles    
Events      
Averages and records for this station are not official NWS values.
T = Trace of Precipitation, MM = Missing Value Source: NWS Daily Summary

Daily Weather History Graph

Daily Weather History Graph

Search for Another Location

Airport:

Trip Planner

Search our weather history database for the weather conditions in past years. The results will help you decide how hot, cold, wet, or windy it might be!

Date:

Astronomy

Jan. 09, 2014 Rise Set
Actual Time 7:44 AM CST 4:53 PM CST
Civil Twilight 7:12 AM CST 5:25 PM CST
Nautical Twilight 6:36 AM CST 6:01 PM CST
Astronomical Twilight 6:01 AM CST 6:36 PM CST
Moon 12:25 PM CST (1/9) 1:47 AM CST (1/9)
Length of Visible Light 10h 13m
Length of Day
9h 09m
Waxing Gibbous, 66% of the Moon is Illuminated
Jan 9
Waxing Gibbous
Jan 15
Full
Jan 23
Last Quarter
Jan 30
New
Feb 6
First Quarter

Hourly Weather History & Observations

Time (CST) Temp. Windchill Dew Point Humidity Pressure Visibility Wind Dir Wind Speed Gust Speed Precip Events Conditions
12:14 AM -11.2 °F - -14.8 °F 84% 30.38 in 10.0 mi Calm Calm - N/A   Clear
12:34 AM -9.4 °F - -14.8 °F 77% 30.38 in 10.0 mi Calm Calm - N/A   Clear
12:55 AM -9.4 °F - -14.8 °F 77% 30.39 in 10.0 mi Calm Calm - N/A   Clear
1:09 AM -9.4 °F - -14.8 °F 77% 30.39 in 10.0 mi Calm Calm - N/A   Clear
1:35 AM -9.4 °F - -14.8 °F 77% 30.39 in 10.0 mi Calm Calm - N/A   Clear
1:54 AM -9.4 °F - -14.8 °F 77% 30.39 in 10.0 mi Calm Calm - N/A   Clear
2:14 AM -9.4 °F -18.6 °F -14.8 °F 77% 30.38 in 10.0 mi SE 3.5 mph - N/A   Clear
2:35 AM -9.4 °F - -14.8 °F 77% 30.38 in 10.0 mi Calm Calm - N/A   Clear
2:54 AM -9.4 °F -20.9 °F -14.8 °F 77% 30.37 in 10.0 mi SE 4.6 mph - N/A   Scattered Clouds
3:15 AM -7.6 °F -16.5 °F -11.2 °F 84% 30.36 in 10.0 mi SSE 3.5 mph - N/A   Mostly Cloudy
3:34 AM -7.6 °F -20.6 °F -11.2 °F 84% 30.35 in 10.0 mi SSE 5.8 mph - N/A   Mostly Cloudy
3:54 AM -7.6 °F -18.8 °F -11.2 °F 84% 30.34 in 10.0 mi SSE 4.6 mph - N/A   Scattered Clouds
4:15 AM -7.6 °F -20.6 °F -11.2 °F 84% 30.34 in 10.0 mi South 5.8 mph - N/A   Clear
4:34 AM -5.8 °F -21.2 °F -11.2 °F 77% 30.33 in 10.0 mi SSE 8.1 mph - N/A   Clear
4:54 AM -5.8 °F -19.9 °F -11.2 °F 77% 30.33 in 10.0 mi SSE 6.9 mph - N/A   Clear
5:15 AM -5.8 °F -18.4 °F -11.2 °F 77% 30.32 in 10.0 mi SSE 5.8 mph - N/A   Clear
5:34 AM -5.8 °F -19.9 °F -11.2 °F 77% 30.31 in 10.0 mi SSE 6.9 mph - N/A   Clear
5:55 AM -5.8 °F -19.9 °F -9.4 °F 84% 30.30 in 10.0 mi South 6.9 mph - N/A   Clear
6:14 AM -5.8 °F -19.9 °F -9.4 °F 84% 30.29 in 10.0 mi South 6.9 mph - N/A   Clear
6:34 AM -4.0 °F -19.0 °F -9.4 °F 78% 30.29 in 10.0 mi South 8.1 mph - N/A   Mostly Cloudy
6:55 AM -2.2 °F -16.8 °F -7.6 °F 78% 30.28 in 10.0 mi South 8.1 mph - N/A   Overcast
7:14 AM -2.2 °F -18.0 °F -7.6 °F 78% 30.28 in 10.0 mi South 9.2 mph - N/A   Overcast
7:34 AM -2.2 °F -18.0 °F -7.6 °F 78% 30.27 in 10.0 mi South 9.2 mph - N/A   Overcast
7:55 AM -0.4 °F -15.7 °F -7.6 °F 72% 30.26 in 10.0 mi South 9.2 mph - N/A   Overcast
8:14 AM -2.2 °F -18.0 °F -7.6 °F 78% 30.26 in 10.0 mi SSE 9.2 mph - N/A   Scattered Clouds
8:34 AM -0.4 °F -15.7 °F -7.6 °F 72% 30.26 in 10.0 mi South 9.2 mph - N/A   Clear
8:54 AM -0.4 °F -13.4 °F -7.6 °F 72% 30.25 in 10.0 mi South 6.9 mph - N/A   Clear
9:14 AM -0.4 °F -15.7 °F -5.8 °F 78% 30.25 in 10.0 mi South 9.2 mph - N/A   Clear
9:35 AM 1.4 °F -16.1 °F -5.8 °F 72% 30.25 in 10.0 mi South 12.7 mph - N/A   Clear
9:54 AM 1.4 °F -13.5 °F -5.8 °F 72% 30.25 in 10.0 mi South 9.2 mph 18.4 mph N/A   Clear
10:14 AM 3.2 °F -12.2 °F -4.0 °F 72% 30.24 in 10.0 mi South 10.4 mph 16.1 mph N/A   Clear
10:35 AM 5.0 °F -9.1 °F -2.2 °F 72% 30.23 in 10.0 mi South 9.2 mph 16.1 mph N/A   Clear
10:54 AM 6.8 °F -6.9 °F -2.2 °F 67% 30.22 in 10.0 mi South 9.2 mph - N/A   Clear
11:14 AM 6.8 °F -8.6 °F -2.2 °F 67% 30.20 in 10.0 mi South 11.5 mph 16.1 mph N/A   Scattered Clouds
11:35 AM 8.6 °F -4.7 °F -0.4 °F 67% 30.19 in 10.0 mi SSE 9.2 mph - N/A   Mostly Cloudy
11:54 AM 8.6 °F -3.7 °F -0.4 °F 67% 30.17 in 10.0 mi SSE 8.1 mph - N/A   Overcast
12:14 PM 10.4 °F -1.5 °F 1.4 °F 67% 30.16 in 10.0 mi SSE 8.1 mph 16.1 mph N/A   Overcast
12:35 PM 10.4 °F -0.4 °F 1.4 °F 67% 30.14 in 10.0 mi SSE 6.9 mph - N/A   Overcast
12:54 PM 12.2 °F -2.5 °F 3.2 °F 67% 30.13 in 10.0 mi SSE 12.7 mph 18.4 mph N/A   Overcast
1:14 PM 12.2 °F -2.5 °F 3.2 °F 67% 30.12 in 10.0 mi South 12.7 mph 18.4 mph N/A   Overcast
1:35 PM 14.0 °F 0.5 °F 5.0 °F 67% 30.11 in 10.0 mi South 11.5 mph 17.3 mph N/A   Overcast
1:54 PM 15.8 °F 1.4 °F 6.8 °F 68% 30.10 in 10.0 mi South 13.8 mph 19.6 mph N/A   Overcast
2:34 PM 14.0 °F -1.4 °F 8.6 °F 79% 30.09 in 7.0 mi South 15.0 mph 19.6 mph N/A   Mostly Cloudy
2:54 PM 14.0 °F 1.2 °F 10.4 °F 86% 30.09 in 4.0 mi South 10.4 mph 13.8 mph N/A   Overcast
3:15 PM 15.8 °F 0.3 °F 12.2 °F 86% 30.08 in 2.0 mi South 16.1 mph - N/A   Overcast
3:34 PM 15.8 °F 2.1 °F 12.2 °F 86% 30.07 in 2.5 mi South 12.7 mph 20.7 mph N/A   Overcast
3:54 PM 15.8 °F 2.1 °F 12.2 °F 86% 30.06 in 2.5 mi South 12.7 mph 17.3 mph N/A   Overcast
4:14 PM 15.8 °F 2.1 °F 12.2 °F 86% 30.06 in 2.5 mi South 12.7 mph 17.3 mph N/A   Overcast
5:14 PM 14.0 °F 1.2 °F 12.2 °F 93% 30.04 in 5.0 mi South 10.4 mph - N/A   Overcast
5:34 PM 14.0 °F 2.0 °F 12.2 °F 93% 30.04 in 4.0 mi SSE 9.2 mph 17.3 mph N/A   Overcast
5:55 PM 14.0 °F 2.0 °F 12.2 °F 93% 30.04 in 5.0 mi SSE 9.2 mph - N/A   Overcast
6:14 PM 14.0 °F 1.2 °F 12.2 °F 93% 30.04 in 5.0 mi SSE 10.4 mph - N/A   Overcast
6:34 PM 14.0 °F 2.0 °F 12.2 °F 93% 30.03 in 5.0 mi South 9.2 mph - N/A   Overcast
6:55 PM 14.0 °F 0.5 °F 12.2 °F 93% 30.03 in 5.0 mi South 11.5 mph 16.1 mph N/A   Overcast
7:14 PM 14.0 °F 1.2 °F 12.2 °F 93% 30.03 in 5.0 mi South 10.4 mph 17.3 mph N/A   Overcast
7:35 PM 14.0 °F 1.2 °F 12.2 °F 93% 30.03 in 5.0 mi South 10.4 mph 17.3 mph N/A   Overcast
7:54 PM 14.0 °F -0.8 °F 12.2 °F 93% 30.03 in 3.0 mi South 13.8 mph 17.3 mph N/A   Overcast
8:14 PM 14.0 °F -0.2 °F 12.2 °F 93% 30.02 in 2.0 mi South 12.7 mph 20.7 mph N/A   Overcast
8:35 PM 14.0 °F -1.4 °F 12.2 °F 93% 30.01 in 1.8 mi South 15.0 mph 19.6 mph N/A   Overcast
8:54 PM 15.8 °F 2.1 °F 14.0 °F 93% 30.01 in 2.5 mi South 12.7 mph 21.9 mph N/A   Overcast
9:14 PM 15.8 °F 0.3 °F 14.0 °F 93% 30.01 in 4.0 mi South 16.1 mph 19.6 mph N/A   Overcast
9:35 PM 15.8 °F 2.1 °F 14.0 °F 93% 30.01 in 4.0 mi South 12.7 mph - N/A   Overcast
9:54 PM 15.8 °F 1.4 °F 14.0 °F 93% 30.00 in 4.0 mi South 13.8 mph 19.6 mph N/A   Overcast
10:14 PM 15.8 °F 1.4 °F 14.0 °F 93% 29.98 in 3.0 mi South 13.8 mph 18.4 mph N/A   Overcast
10:34 PM 15.8 °F 2.1 °F 15.8 °F 100% 29.97 in 2.5 mi South 12.7 mph 19.6 mph N/A   Overcast
10:54 PM 15.8 °F 3.4 °F 15.8 °F 100% 29.96 in 2.0 mi South 10.4 mph - N/A   Overcast
11:15 PM 15.8 °F 3.4 °F 15.8 °F 100% 29.95 in 2.0 mi South 10.4 mph - N/A   Overcast
11:30 PM 15.8 °F 3.4 °F 15.8 °F 100% 29.94 in 1.5 mi South 10.4 mph - N/A   Overcast